LOT2303 EPGD-EBBR

Flight info

Callsign LOT2303
Flight time 1h 43m
Altitude 38000
Route DEXIR T671 AGODU L733 TABOK DCT ROBEG DCT ABAMI Z717 NEREL/N0395F240 T855 AGENI/N0360F180 T855 LNO
Aircraft E190/M-SDE2E3FGIJ1RVWYZ/HB1

Departure

Time 2026-05-04 16:07
Airport Gdańsk Lech Wałęsa Airport (EPGD)

Arrival

Time 2026-05-04 17:50
Airport Brussels Airport (EBBR)
Time Latitude Longitude Altitude Speed Heading
2026-05-04 15:28 54.38062 18.46375 492 ft 0 kts 202°
2026-05-04 16:00 54.38062 18.46374 492 ft 0 kts 202°
2026-05-04 16:00 54.38054 18.46369 492 ft 1 kts 203°
2026-05-04 16:00 54.38038 18.46357 492 ft 3 kts 203°
2026-05-04 16:01 54.38009 18.46354 492 ft 5 kts 156°
2026-05-04 16:01 54.37984 18.46425 492 ft 8 kts 113°
2026-05-04 16:01 54.37958 18.46529 492 ft 10 kts 112°
2026-05-04 16:01 54.37927 18.46654 492 ft 12 kts 113°
2026-05-04 16:02 54.37889 18.46797 492 ft 14 kts 114°
2026-05-04 16:02 54.37850 18.46961 492 ft 15 kts 114°
2026-05-04 16:02 54.37759 18.47330 492 ft 17 kts 112°
2026-05-04 16:03 54.37710 18.47526 492 ft 18 kts 112°
2026-05-04 16:03 54.37658 18.47736 492 ft 20 kts 110°
2026-05-04 16:03 54.37602 18.47960 492 ft 21 kts 112°
2026-05-04 16:03 54.37543 18.48195 492 ft 21 kts 112°
2026-05-04 16:04 54.37484 18.48430 492 ft 21 kts 112°
2026-05-04 16:04 54.37365 18.48910 492 ft 19 kts 112°
2026-05-04 16:04 54.37317 18.49108 491 ft 13 kts 112°
2026-05-04 16:05 54.37287 18.49218 491 ft 9 kts 124°
2026-05-04 16:05 54.37230 18.49259 491 ft 9 kts 190°
2026-05-04 16:05 54.37143 18.49122 491 ft 8 kts 257°
2026-05-04 16:06 54.37169 18.48995 491 ft 15 kts 292°
2026-05-04 16:06 54.37772 18.46559 555 ft 149 kts 292°
2026-05-04 16:07 54.38323 18.44389 1354 ft 152 kts 290°
2026-05-04 16:07 54.39659 18.38878 2796 ft 199 kts 291°
2026-05-04 16:08 54.40223 18.36582 3361 ft 216 kts 290°
2026-05-04 16:08 54.41715 18.29111 5586 ft 233 kts 260°
2026-05-04 16:09 54.40683 18.23639 6942 ft 251 kts 249°
2026-05-04 16:09 54.39409 18.18097 8612 ft 254 kts 249°
2026-05-04 16:10 54.38125 18.12489 10163 ft 257 kts 249°
2026-05-04 16:11 54.36104 18.03673 11997 ft 278 kts 249°
2026-05-04 16:11 54.35391 18.00572 12602 ft 285 kts 249°
2026-05-04 16:12 54.33193 17.91036 14648 ft 291 kts 249°
2026-05-04 16:12 54.30942 17.81316 16558 ft 298 kts 249°
2026-05-04 16:13 54.29308 17.74790 17776 ft 303 kts 246°
2026-05-04 16:13 54.27494 17.68248 18917 ft 309 kts 246°
2026-05-04 16:14 54.25663 17.61598 20063 ft 313 kts 246°
2026-05-04 16:14 54.23798 17.54833 21167 ft 318 kts 246°
2026-05-04 16:15 54.20960 17.44567 22772 ft 324 kts 245°
2026-05-04 16:16 54.19020 17.37580 23869 ft 327 kts 245°
2026-05-04 16:16 54.16077 17.27013 25439 ft 333 kts 245°
2026-05-04 16:17 54.14072 17.19845 26373 ft 339 kts 245°
2026-05-04 16:18 54.10977 17.08821 27812 ft 346 kts 246°
2026-05-04 16:18 54.09925 17.05087 28275 ft 348 kts 246°
2026-05-04 16:19 54.06724 16.93759 29633 ft 355 kts 246°
2026-05-04 16:19 54.04526 16.86008 30315 ft 359 kts 246°
2026-05-04 16:20 54.01196 16.74317 31033 ft 376 kts 246°
2026-05-04 16:20 53.98883 16.66234 31507 ft 387 kts 246°
2026-05-04 16:21 53.95287 16.53719 32265 ft 400 kts 246°
2026-05-04 16:22 53.92834 16.45224 32785 ft 403 kts 246°
2026-05-04 16:22 53.89129 16.32448 34070 ft 400 kts 245°
2026-05-04 16:23 53.85486 16.19950 35359 ft 394 kts 245°
2026-05-04 16:24 53.80563 16.03165 36188 ft 403 kts 245°
2026-05-04 16:25 53.78068 15.94709 36576 ft 404 kts 245°
2026-05-04 16:26 53.73044 15.77763 37478 ft 409 kts 245°
2026-05-04 16:26 53.69208 15.64906 37960 ft 411 kts 244°
2026-05-04 16:28 53.62793 15.43561 37939 ft 409 kts 244°
2026-05-04 16:29 53.53758 15.13816 37957 ft 409 kts 244°
2026-05-04 16:31 53.47262 14.92656 37958 ft 409 kts 244°
2026-05-04 16:32 53.39426 14.67375 37929 ft 408 kts 244°
2026-05-04 16:33 53.34159 14.50532 37943 ft 410 kts 244°
2026-05-04 16:34 53.30211 14.37983 37933 ft 409 kts 244°
2026-05-04 16:35 53.22249 14.12870 37960 ft 409 kts 243°
2026-05-04 16:36 53.18237 14.00316 37948 ft 409 kts 243°
2026-05-04 16:37 53.14240 13.87871 37944 ft 408 kts 243°
2026-05-04 16:38 53.08901 13.71344 37947 ft 407 kts 243°
2026-05-04 16:39 53.02198 13.50754 37950 ft 407 kts 243°
2026-05-04 16:40 52.96801 13.34303 37946 ft 407 kts 243°
2026-05-04 16:41 52.92048 13.12478 37946 ft 404 kts 255°
2026-05-04 16:43 52.88451 12.89996 37945 ft 404 kts 255°
2026-05-04 16:43 52.86268 12.76535 37947 ft 407 kts 255°
2026-05-04 16:45 52.81847 12.49597 37946 ft 406 kts 255°
2026-05-04 16:46 52.78104 12.27116 37943 ft 406 kts 254°
2026-05-04 16:47 52.75081 12.09171 37940 ft 406 kts 254°
2026-05-04 16:48 52.72046 11.91339 37940 ft 406 kts 254°
2026-05-04 16:49 52.68967 11.73432 37935 ft 408 kts 254°
2026-05-04 16:50 52.65855 11.55515 37943 ft 407 kts 254°
2026-05-04 16:51 52.63508 11.42122 37941 ft 408 kts 254°
2026-05-04 16:52 52.60329 11.24139 37939 ft 408 kts 253°
2026-05-04 16:53 52.57949 11.10792 37933 ft 408 kts 253°
2026-05-04 16:54 52.54727 10.92877 37929 ft 410 kts 253°
2026-05-04 16:55 52.49869 10.66196 37930 ft 408 kts 253°
2026-05-04 16:56 52.45777 10.44022 37929 ft 407 kts 253°
2026-05-04 16:57 52.43300 10.30721 37929 ft 406 kts 252°
2026-05-04 16:58 52.39973 10.13010 37942 ft 407 kts 252°
2026-05-04 17:00 52.34958 9.86619 37943 ft 407 kts 252°
2026-05-04 17:00 52.31149 9.74349 37959 ft 408 kts 236°
2026-05-04 17:01 52.28120 9.66577 37964 ft 407 kts 240°
2026-05-04 17:02 52.22374 9.50816 37950 ft 408 kts 240°
2026-05-04 17:03 52.17858 9.39152 37939 ft 408 kts 234°
2026-05-04 17:03 52.13206 9.27604 37956 ft 407 kts 240°
2026-05-04 17:04 52.07489 9.11832 37947 ft 407 kts 239°
2026-05-04 17:05 52.01691 8.96101 37946 ft 406 kts 239°
2026-05-04 17:06 51.97346 8.84375 37943 ft 406 kts 239°
2026-05-04 17:07 51.93460 8.73933 37945 ft 407 kts 239°
2026-05-04 17:07 51.90056 8.64823 37950 ft 407 kts 239°
2026-05-04 17:08 51.85643 8.53060 37947 ft 408 kts 239°
2026-05-04 17:09 51.82715 8.45284 37949 ft 407 kts 239°
2026-05-04 17:09 51.79765 8.37473 37954 ft 409 kts 239°
2026-05-04 17:10 51.72347 8.17941 37950 ft 408 kts 238°
2026-05-04 17:11 51.69394 8.10207 37956 ft 409 kts 238°
2026-05-04 17:12 51.64919 7.98531 37952 ft 408 kts 237°
2026-05-04 17:13 51.57449 7.79158 37962 ft 409 kts 238°
2026-05-04 17:14 51.51479 7.63779 37941 ft 389 kts 237°
2026-05-04 17:14 51.48753 7.56786 37927 ft 351 kts 237°
2026-05-04 17:15 51.47472 7.53508 37954 ft 350 kts 237°
2026-05-04 17:16 51.42181 7.40012 37813 ft 365 kts 237°
2026-05-04 17:16 51.38184 7.29861 36516 ft 354 kts 236°
2026-05-04 17:17 51.36873 7.26538 36139 ft 350 kts 236°
2026-05-04 17:17 51.32979 7.16700 35024 ft 350 kts 235°
2026-05-04 17:18 51.31689 7.13450 34552 ft 350 kts 236°
2026-05-04 17:18 51.29061 7.06839 33478 ft 355 kts 236°
2026-05-04 17:19 51.26403 7.00172 32410 ft 362 kts 236°
2026-05-04 17:19 51.23708 6.93428 31332 ft 361 kts 236°
2026-05-04 17:20 51.21044 6.86777 30246 ft 355 kts 236°
2026-05-04 17:20 51.18406 6.80210 29141 ft 350 kts 236°
2026-05-04 17:20 51.17102 6.76971 28604 ft 348 kts 236°
2026-05-04 17:21 51.14502 6.70522 27516 ft 345 kts 236°
2026-05-04 17:21 51.11935 6.64173 26425 ft 342 kts 236°
2026-05-04 17:22 51.10650 6.60999 25877 ft 340 kts 236°
2026-05-04 17:22 51.09368 6.57838 25338 ft 340 kts 235°
2026-05-04 17:23 51.04602 6.49746 23831 ft 333 kts 225°
2026-05-04 17:23 51.02968 6.47159 23431 ft 332 kts 224°
2026-05-04 17:23 50.99693 6.41987 22664 ft 332 kts 225°
2026-05-04 17:24 50.98064 6.39418 22291 ft 331 kts 224°
2026-05-04 17:24 50.93272 6.31877 21191 ft 327 kts 224°
2026-05-04 17:25 50.91720 6.29440 20834 ft 326 kts 223°
2026-05-04 17:25 50.88566 6.24496 20115 ft 324 kts 223°
2026-05-04 17:26 50.85362 6.19483 19388 ft 321 kts 223°
2026-05-04 17:26 50.81014 6.11611 18306 ft 321 kts 243°
2026-05-04 17:27 50.79159 6.05215 17612 ft 320 kts 243°
2026-05-04 17:27 50.77323 5.98834 16872 ft 316 kts 243°
2026-05-04 17:28 50.76010 5.92333 16170 ft 317 kts 263°
2026-05-04 17:29 50.75507 5.81975 15101 ft 315 kts 263°
2026-05-04 17:29 50.75005 5.71732 13942 ft 311 kts 264°
2026-05-04 17:30 50.75882 5.61645 13792 ft 313 kts 278°
2026-05-04 17:31 50.76649 5.54872 13661 ft 316 kts 279°
2026-05-04 17:31 50.77793 5.44690 12836 ft 308 kts 280°
2026-05-04 17:32 50.78550 5.37913 12280 ft 315 kts 279°
2026-05-04 17:33 50.79653 5.27974 10883 ft 305 kts 280°
2026-05-04 17:33 50.80144 5.24776 10494 ft 297 kts 295°
2026-05-04 17:34 50.82855 5.16163 9673 ft 291 kts 303°
2026-05-04 17:34 50.83912 5.13486 9330 ft 287 kts 303°
2026-05-04 17:35 50.85133 5.05081 8550 ft 262 kts 253°
2026-05-04 17:35 50.84073 4.99734 8305 ft 253 kts 253°
2026-05-04 17:35 50.83553 4.97078 8208 ft 255 kts 253°
2026-05-04 17:36 50.83029 4.94386 8102 ft 255 kts 254°
2026-05-04 17:36 50.82501 4.91687 7991 ft 256 kts 254°
2026-05-04 17:36 50.81973 4.89005 7889 ft 254 kts 254°
2026-05-04 17:36 50.81450 4.86341 7772 ft 254 kts 254°
2026-05-04 17:37 50.80925 4.83692 7641 ft 253 kts 253°
2026-05-04 17:37 50.80399 4.81044 7559 ft 252 kts 253°
2026-05-04 17:37 50.79881 4.78424 7438 ft 252 kts 254°
2026-05-04 17:37 50.79353 4.75778 7337 ft 252 kts 254°
2026-05-04 17:38 50.78826 4.73136 7206 ft 251 kts 254°
2026-05-04 17:38 50.78301 4.70510 7096 ft 250 kts 254°
2026-05-04 17:38 50.77781 4.67896 7001 ft 251 kts 254°
2026-05-04 17:38 50.77258 4.65260 6898 ft 251 kts 254°
2026-05-04 17:39 50.76191 4.59998 6679 ft 251 kts 253°
2026-05-04 17:39 50.75652 4.57395 6575 ft 250 kts 253°
2026-05-04 17:39 50.75104 4.54784 6483 ft 249 kts 253°
2026-05-04 17:40 50.74563 4.52223 6384 ft 248 kts 253°
2026-05-04 17:40 50.74017 4.49647 6279 ft 247 kts 253°
2026-05-04 17:40 50.73468 4.47062 6177 ft 247 kts 253°
2026-05-04 17:40 50.72922 4.44488 6075 ft 247 kts 253°
2026-05-04 17:41 50.72592 4.41844 5979 ft 246 kts 263°
2026-05-04 17:41 50.72335 4.39178 5882 ft 247 kts 263°
2026-05-04 17:41 50.72076 4.36503 5771 ft 247 kts 263°
2026-05-04 17:41 50.71824 4.33877 5645 ft 247 kts 262°
2026-05-04 17:42 50.71572 4.31240 5519 ft 246 kts 262°
2026-05-04 17:42 50.71316 4.28563 5368 ft 246 kts 262°
2026-05-04 17:42 50.71154 4.25889 5211 ft 243 kts 280°
2026-05-04 17:42 50.71823 4.23623 5164 ft 221 kts 310°
2026-05-04 17:43 50.72767 4.21846 5075 ft 205 kts 312°
2026-05-04 17:43 50.73666 4.20164 4909 ft 196 kts 312°
2026-05-04 17:43 50.74534 4.18536 4723 ft 192 kts 312°
2026-05-04 17:43 50.75505 4.17141 4538 ft 190 kts 341°
2026-05-04 17:44 50.76779 4.17058 4411 ft 185 kts 15°
2026-05-04 17:44 50.78020 4.17600 4250 ft 186 kts 17°
2026-05-04 17:44 50.79273 4.18175 4069 ft 186 kts 17°
2026-05-04 17:44 50.80494 4.18773 3868 ft 185 kts 24°
2026-05-04 17:45 50.81555 4.19850 3705 ft 183 kts 47°
2026-05-04 17:45 50.82364 4.21426 3526 ft 184 kts 53°
2026-05-04 17:45 50.83081 4.23100 3209 ft 185 kts 63°
2026-05-04 17:45 50.83606 4.24908 3025 ft 175 kts 64°
2026-05-04 17:46 50.84131 4.26539 3027 ft 153 kts 62°
2026-05-04 17:46 50.84611 4.27972 2950 ft 148 kts 61°
2026-05-04 17:46 50.85130 4.29417 2627 ft 151 kts 60°
2026-05-04 17:46 50.85637 4.30811 2403 ft 146 kts 60°
2026-05-04 17:47 50.86126 4.32161 2151 ft 136 kts 60°
2026-05-04 17:47 50.86534 4.33468 1825 ft 129 kts 68°
2026-05-04 17:47 50.86831 4.34749 1607 ft 123 kts 71°
2026-05-04 17:47 50.87122 4.36051 1441 ft 125 kts 65°
2026-05-04 17:48 50.87484 4.37299 1293 ft 127 kts 64°
2026-05-04 17:48 50.87880 4.38549 1177 ft 126 kts 61°
2026-05-04 17:48 50.88248 4.39814 1082 ft 127 kts 66°
2026-05-04 17:48 50.88598 4.41102 944 ft 128 kts 63°
2026-05-04 17:49 50.88976 4.42392 757 ft 128 kts 65°
2026-05-04 17:49 50.89341 4.43674 565 ft 128 kts 63°
2026-05-04 17:49 50.89717 4.44967 370 ft 129 kts 63°
2026-05-04 17:49 50.90089 4.46253 210 ft 129 kts 64°
2026-05-04 17:50 50.90429 4.47427 192 ft 99 kts 65°
2026-05-04 17:50 50.90626 4.48108 192 ft 33 kts 64°
2026-05-04 17:50 50.90652 4.48303 192 ft 11 kts 110°
2026-05-04 17:50 50.90615 4.48413 192 ft 11 kts 120°
2026-05-04 17:51 50.90576 4.48528 191 ft 11 kts 105°
2026-05-04 17:51 50.90604 4.48651 192 ft 12 kts 65°
2026-05-04 17:51 50.90639 4.48776 191 ft 12 kts 64°
2026-05-04 17:51 50.90676 4.48908 192 ft 13 kts 65°
2026-05-04 17:52 50.90712 4.49043 192 ft 13 kts 88°
2026-05-04 17:52 50.90653 4.49086 191 ft 11 kts 227°
2026-05-04 17:52 50.90615 4.48969 191 ft 12 kts 246°
2026-05-04 17:52 50.90579 4.48842 191 ft 12 kts 246°
2026-05-04 17:53 50.90541 4.48711 191 ft 13 kts 245°
2026-05-04 17:53 50.90501 4.48573 191 ft 14 kts 244°
2026-05-04 17:53 50.90470 4.48488 191 ft 5 kts 196°
2026-05-04 17:53 50.90425 4.48515 191 ft 7 kts 155°
2026-05-04 17:54 50.90399 4.48534 191 ft 0 kts 154°
2026-05-04 17:54 50.90396 4.48536 191 ft 0 kts 154°
2026-05-04 17:54 50.90394 4.48538 191 ft 0 kts 154°